| time (UTC) | temp C | wind direction | speed KPH | gust KPH | rain 1hr cm | rain 24hr cm | rain mn cm | humidity % | barometer mb |
| 20260506122514 | 18 | 91 | 0.0 | 0.0 | 0.03 | 0.03 | 0.03 | 87 | 1010.9 |
| 20260506122013 | 18 | 91 | 0.0 | 1.6 | 0.03 | 0.03 | 0.03 | 87 | 1011.0 |
| 20260506121512 | 18 | 91 | 0.0 | 1.6 | 0.03 | 0.03 | 0.03 | 87 | 1011.0 |
| 20260506121012 | 18 | 91 | 0.0 | 0.0 | 0.03 | 0.03 | 0.03 | 87 | 1010.9 |
| 20260506120515 | 18 | 91 | 0.0 | 0.0 | 0.03 | 0.03 | 0.03 | 87 | 1010.8 |
| 20260506120011 | 18 | 91 | 0.0 | 0.0 | 0.03 | 0.03 | 0.03 | 86 | 1010.7 |
| 20260506115511 | 18 | 91 | 0.0 | 3.2 | 0.03 | 0.03 | 0.03 | 86 | 1010.6 |
| 20260506115010 | 18 | 91 | 0.0 | 3.2 | 0.03 | 0.03 | 0.03 | 86 | 1010.4 |
| 20260506114509 | 18 | 10 | 0.0 | 0.0 | 0.03 | 0.03 | 0.03 | 86 | 1010.9 |
| 20260506114008 | 18 | 10 | 0.0 | 1.6 | 0.03 | 0.03 | 0.03 | 86 | 1010.7 |
| 20260506113512 | 18 | 109 | 0.0 | 3.2 | 0.00 | 0.00 | 0.00 | 86 | 1010.5 |
| 20260506113008 | 18 | 103 | 0.0 | 3.2 | 0.00 | 0.00 | 0.00 | 86 | 1010.4 |
| 20260506112508 | 18 | 136 | 0.0 | 3.2 | 0.00 | 0.00 | 0.00 | 86 | 1010.2 |
| 20260506112007 | 18 | 160 | 0.0 | 1.6 | 0.00 | 0.00 | 0.00 | 86 | 1010.6 |
| 20260506111509 | 18 | 137 | 0.0 | 1.6 | 0.00 | 0.00 | 0.00 | 85 | 1010.7 |
| 20260506111006 | 18 | 137 | 0.0 | 1.6 | 0.00 | 0.00 | 0.00 | 84 | 1010.7 |
| 20260506110511 | 18 | 137 | 0.0 | 1.6 | 0.00 | 0.00 | 0.00 | 84 | 1010.5 |
| 20260506110007 | 18 | 137 | 0.0 | 1.6 | 0.00 | 0.00 | 0.00 | 82 | 1010.2 |
| 20260506105503 | 19 | 137 | 0.0 | 3.2 | 0.00 | 0.00 | 0.00 | 81 | 1010.2 |
| 20260506105005 | 19 | 140 | 0.0 | 3.2 | 0.00 | 0.00 | 0.00 | 81 | 1010.2 |
| 20260506104502 | 19 | 138 | 0.0 | 1.6 | 0.00 | 0.00 | 0.00 | 81 | 1010.2 |
| 20260506104002 | 19 | 138 | 0.0 | 1.6 | 0.00 | 0.00 | 0.00 | 81 | 1010.1 |
| 20260506103502 | 19 | 138 | 0.0 | 1.6 | 0.00 | 0.00 | 0.00 | 80 | 1009.7 |
| 20260506103100 | 19 | 138 | 0.0 | 1.6 | 0.00 | 0.00 | 0.00 | 80 | 1009.7 |
| 20260506102600 | 19 | 138 | 0.0 | 3.2 | 0.00 | 0.00 | 0.00 | 79 | 1009.6 |
| 20260506102100 | 19 | 138 | 0.0 | 3.2 | 0.00 | 0.00 | 0.00 | 79 | 1009.6 |
| 20260506101605 | 19 | 243 | 0.0 | 1.6 | 0.00 | 0.00 | 0.00 | 78 | 1009.9 |
| 20260506101100 | 19 | 243 | 0.0 | 3.2 | 0.00 | 0.00 | 0.00 | 78 | 1009.8 |
| 20260506100559 | 19 | 237 | 0.0 | 3.2 | 0.00 | 0.00 | 0.00 | 77 | 1010.0 |
| 20260506100058 | 19 | 246 | 0.0 | 3.2 | 0.00 | 0.00 | 0.00 | 77 | 1009.8 |
| 20260506095559 | 20 | 227 | 0.0 | 3.2 | 0.00 | 0.00 | 0.00 | 77 | 1009.3 |
| 20260506095058 | 20 | 202 | 0.0 | 4.8 | 0.00 | 0.00 | 0.00 | 76 | 1009.3 |
| 20260506094600 | 20 | 207 | 0.0 | 4.8 | 0.00 | 0.00 | 0.00 | 76 | 1009.2 |
| 20260506094057 | 20 | 192 | 0.0 | 4.8 | 0.00 | 0.00 | 0.00 | 76 | 1009.3 |
| 20260506093556 | 20 | 224 | 0.0 | 4.8 | 0.00 | 0.00 | 0.00 | 75 | 1009.6 |
| 20260506093104 | 20 | 217 | 0.0 | 3.2 | 0.00 | 0.00 | 0.00 | 75 | 1009.6 |
| 20260506092556 | 20 | 219 | 0.0 | 3.2 | 0.00 | 0.00 | 0.00 | 75 | 1009.5 |
| 20260506092056 | 20 | 219 | 1.6 | 4.8 | 0.00 | 0.00 | 0.00 | 74 | 1009.5 |
| 20260506091556 | 20 | 196 | 1.6 | 4.8 | 0.00 | 0.00 | 0.00 | 74 | 1009.7 |
| 20260506091056 | 20 | 218 | 0.0 | 3.2 | 0.00 | 0.00 | 0.00 | 74 | 1009.7 |
| 20260506090602 | 20 | 230 | 1.6 | 4.8 | 0.00 | 0.00 | 0.00 | 74 | 1009.7 |
| 20260506090100 | 20 | 230 | 1.6 | 4.8 | 0.00 | 0.00 | 0.00 | 73 | 1009.7 |
| 20260506085554 | 20 | 215 | 1.6 | 4.8 | 0.00 | 0.00 | 0.00 | 73 | 1009.6 |
| 20260506085055 | 20 | 227 | 0.0 | 4.8 | 0.00 | 0.00 | 0.00 | 73 | 1009.4 |
| 20260506084554 | 20 | 215 | 1.6 | 4.8 | 0.00 | 0.00 | 0.00 | 73 | 1009.4 |
| 20260506084054 | 20 | 231 | 1.6 | 4.8 | 0.00 | 0.00 | 0.00 | 73 | 1009.3 |
| 20260506083554 | 20 | 229 | 1.6 | 4.8 | 0.00 | 0.00 | 0.00 | 73 | 1009.0 |
| 20260506083055 | 20 | 239 | 1.6 | 4.8 | 0.00 | 0.00 | 0.00 | 73 | 1009.1 |
| 20260506082558 | 20 | 239 | 1.6 | 4.8 | 0.00 | 0.00 | 0.00 | 73 | 1009.1 |
| 20260506082055 | 20 | 246 | 0.0 | 3.2 | 0.00 | 0.00 | 0.00 | 73 | 1008.9 |
| 20260506081553 | 20 | 218 | 0.0 | 4.8 | 0.00 | 0.00 | 0.00 | 73 | 1009.0 |
| 20260506081053 | 20 | 223 | 0.0 | 4.8 | 0.00 | 0.00 | 0.00 | 73 | 1009.1 |
| 20260506080553 | 20 | 194 | 0.0 | 3.2 | 0.00 | 0.00 | 0.00 | 73 | 1009.0 |
| 20260506073050 | 20 | 112 | 0.0 | 1.6 | 0.00 | 0.00 | 0.00 | 70 | 1009.0 |
| 20260506072551 | 20 | 112 | 0.0 | 1.6 | 0.00 | 0.00 | 0.00 | 70 | 1009.1 |
| 20260506072052 | 20 | 112 | 0.0 | 1.6 | 0.00 | 0.00 | 0.00 | 70 | 1009.1 |
| 20260506071604 | 20 | 85 | 0.0 | 4.8 | 0.00 | 0.00 | 0.00 | 71 | 1009.0 |
| 20260506071052 | 20 | 271 | 0.0 | 1.6 | 0.00 | 0.00 | 0.00 | 70 | 1009.1 |
| 20260506070548 | 20 | 271 | 0.0 | 1.6 | 0.00 | 0.00 | 0.00 | 70 | 1009.2 |
| 20260506062040 | 20 | 165 | 0.0 | 0.0 | 0.00 | 0.00 | 0.00 | 65 | 1009.8 |
| 20260506061540 | 20 | 140 | 0.0 | 0.0 | 0.00 | 0.00 | 0.00 | 65 | 1009.9 |
| 20260506061040 | 20 | 168 | 0.0 | 0.0 | 0.00 | 0.00 | 0.00 | 65 | 1009.9 |
| 20260506060538 | 20 | 199 | 0.0 | 0.0 | 0.00 | 0.00 | 0.00 | 65 | 1010.1 |
| 20260506051033 | 20 | 355 | 0.0 | 3.2 | 0.00 | 0.00 | 0.00 | 63 | 1010.4 |
| 20260506050534 | 20 | 355 | 0.0 | 3.2 | 0.00 | 0.00 | 0.00 | 63 | 1010.3 |
| 20260506045031 | 20 | 180 | 0.0 | 1.6 | 0.00 | 0.00 | 0.00 | 63 | 1010.4 |
| 20260506044534 | 20 | 101 | 0.0 | 1.6 | 0.00 | 0.00 | 0.00 | 64 | 1010.4 |
| 20260506044031 | 20 | 101 | 0.0 | 1.6 | 0.00 | 0.00 | 0.00 | 64 | 1010.4 |
| 20260506043532 | 20 | 101 | 0.0 | 1.6 | 0.00 | 0.00 | 0.00 | 63 | 1010.4 |
| 20260506043030 | 20 | 101 | 0.0 | 1.6 | 0.00 | 0.00 | 0.00 | 62 | 1010.4 |
| 20260506042530 | 20 | 101 | 0.0 | 0.0 | 0.00 | 0.00 | 0.00 | 62 | 1010.4 |
| 20260506042033 | 20 | 101 | 0.0 | 0.0 | 0.00 | 0.00 | 0.00 | 63 | 1010.3 |
| 20260506041532 | 20 | 101 | 0.0 | 0.0 | 0.00 | 0.00 | 0.00 | 62 | 1010.4 |
| 20260506041028 | 20 | 101 | 0.0 | 1.6 | 0.00 | 0.00 | 0.00 | 61 | 1010.4 |
| 20260506040527 | 21 | 101 | 0.0 | 1.6 | 0.00 | 0.00 | 0.00 | 62 | 1010.4 |
| 20260506040029 | 21 | 101 | 0.0 | 1.6 | 0.00 | 0.00 | 0.00 | 61 | 1010.5 |
| 20260506035526 | 21 | 101 | 0.0 | 1.6 | 0.00 | 0.00 | 0.00 | 61 | 1010.5 |
| 20260506035029 | 20 | 101 | 0.0 | 1.6 | 0.00 | 0.00 | 0.00 | 62 | 1010.5 |
| 20260506034527 | 20 | 101 | 0.0 | 0.0 | 0.00 | 0.00 | 0.00 | 61 | 1010.5 |
| 20260506034028 | 20 | 101 | 0.0 | 0.0 | 0.00 | 0.00 | 0.00 | 64 | 1010.6 |
| 20260506033526 | 20 | 101 | 0.0 | 0.0 | 0.00 | 0.00 | 0.00 | 62 | 1010.8 |
| 20260506033030 | 21 | 101 | 0.0 | 0.0 | 0.00 | 0.00 | 0.00 | 61 | 1010.8 |
| 20260506032525 | 21 | 101 | 0.0 | 0.0 | 0.00 | 0.00 | 0.00 | 60 | 1010.7 |
| 20260506032025 | 21 | 101 | 0.0 | 0.0 | 0.00 | 0.00 | 0.00 | 60 | 1010.7 |
| 20260506031527 | 21 | 101 | 0.0 | 1.6 | 0.00 | 0.00 | 0.00 | 60 | 1010.7 |
| 20260506031027 | 21 | 101 | 0.0 | 3.2 | 0.00 | 0.00 | 0.00 | 60 | 1010.7 |
| 20260506030525 | 21 | 119 | 0.0 | 3.2 | 0.00 | 0.00 | 0.00 | 60 | 1010.7 |
| 20260506030031 | 21 | 190 | 0.0 | 0.0 | 0.00 | 0.00 | 0.00 | 62 | 1011.1 |
| 20260506025525 | 21 | 190 | 0.0 | 3.2 | 0.00 | 0.00 | 0.00 | 61 | 1011.1 |
| 20260506025024 | 21 | 227 | 0.0 | 3.2 | 0.00 | 0.00 | 0.00 | 58 | 1011.3 |
| 20260506024524 | 21 | 227 | 0.0 | 3.2 | 0.00 | 0.00 | 0.00 | 58 | 1011.2 |
| 20260506024024 | 21 | 228 | 0.0 | 3.2 | 0.00 | 0.00 | 0.00 | 58 | 1011.1 |
| 20260506023524 | 21 | 227 | 1.6 | 3.2 | 0.00 | 0.00 | 0.00 | 58 | 1011.0 |
| 20260506023024 | 21 | 227 | 0.0 | 3.2 | 0.00 | 0.00 | 0.00 | 59 | 1010.8 |
| 20260506022523 | 21 | 227 | 0.0 | 1.6 | 0.00 | 0.00 | 0.00 | 61 | 1010.6 |
| 20260506022023 | 21 | 225 | 0.0 | 4.8 | 0.00 | 0.00 | 0.00 | 60 | 1010.5 |
| 20260506021523 | 21 | 225 | 1.6 | 4.8 | 0.00 | 0.00 | 0.00 | 57 | 1010.5 |
| 20260506021023 | 21 | 211 | 0.0 | 3.2 | 0.00 | 0.00 | 0.00 | 58 | 1010.5 |
| 20260506020522 | 21 | 223 | 0.0 | 3.2 | 0.00 | 0.00 | 0.00 | 57 | 1010.4 |
| 20260506020025 | 21 | 223 | 0.0 | 3.2 | 0.00 | 0.00 | 0.00 | 57 | 1010.4 |
| 20260506015522 | 21 | 223 | 1.6 | 3.2 | 0.00 | 0.00 | 0.00 | 57 | 1010.4 |
| 20260506015024 | 21 | 194 | 0.0 | 3.2 | 0.00 | 0.00 | 0.00 | 57 | 1010.3 |
| 20260506014532 | 21 | 155 | 0.0 | 3.2 | 0.00 | 0.00 | 0.00 | 59 | 1010.1 |
| 20260506014022 | 21 | 217 | 0.0 | 1.6 | 0.00 | 0.00 | 0.00 | 56 | 1010.2 |
| 20260506013521 | 21 | 217 | 0.0 | 3.2 | 0.00 | 0.00 | 0.00 | 57 | 1010.2 |
| 20260506013027 | 21 | 217 | 0.0 | 3.2 | 0.00 | 0.00 | 0.00 | 56 | 1010.1 |
| 20260506012521 | 21 | 217 | 0.0 | 1.6 | 0.00 | 0.00 | 0.00 | 56 | 1010.0 |
| 20260506012020 | 21 | 217 | 0.0 | 1.6 | 0.00 | 0.00 | 0.00 | 57 | 1010.0 |
| 20260506011522 | 21 | 217 | 0.0 | 1.6 | 0.00 | 0.00 | 0.00 | 60 | 1010.1 |
| 20260506011021 | 21 | 217 | 0.0 | 3.2 | 0.00 | 0.00 | 0.00 | 58 | 1010.0 |
| 20260506010520 | 21 | 197 | 0.0 | 1.6 | 0.00 | 0.00 | 0.00 | 57 | 1009.9 |
| 20260506010026 | 21 | 197 | 0.0 | 1.6 | 0.00 | 0.00 | 0.00 | 55 | 1009.9 |
| 20260506005520 | 21 | 198 | 0.0 | 0.0 | 0.00 | 0.00 | 0.00 | 57 | 1009.9 |
| 20260506005022 | 21 | 198 | 0.0 | 1.6 | 0.00 | 0.00 | 0.00 | 55 | 1009.9 |
| 20260506004534 | 21 | 198 | 0.0 | 1.6 | 0.00 | 0.00 | 0.00 | 56 | 1009.9 |
| 20260506004020 | 21 | 198 | 0.0 | 1.6 | 0.00 | 0.00 | 0.00 | 57 | 1009.8 |
| 20260506003520 | 21 | 198 | 0.0 | 1.6 | 0.00 | 0.00 | 0.00 | 55 | 1009.8 |
| 20260506003019 | 21 | 198 | 0.0 | 1.6 | 0.00 | 0.00 | 0.00 | 57 | 1009.9 |
| 20260506002518 | 21 | 198 | 0.0 | 3.2 | 0.00 | 0.00 | 0.00 | 56 | 1010.1 |
| 20260506002119 | 21 | 196 | 0.0 | 3.2 | 0.00 | 0.00 | 0.00 | 57 | 1010.1 |
| 20260506001518 | 20 | 230 | 0.0 | 1.6 | 0.00 | 0.00 | 0.00 | 60 | 1010.0 |
| 20260506001018 | 20 | 228 | 0.0 | 0.0 | 0.00 | 0.00 | 0.00 | 61 | 1010.1 |
| 20260506000518 | 20 | 227 | 0.0 | 1.6 | 0.00 | 0.00 | 0.00 | 60 | 1010.1 |
| 20260506000020 | 21 | 227 | 0.0 | 1.6 | 0.00 | 0.00 | 0.00 | 58 | 1010.2 |
| 20260505235518 | 21 | 228 | 0.0 | 1.6 | 0.00 | 0.00 | 0.00 | 56 | 1010.1 |
| 20260505235017 | 21 | 227 | 0.0 | 1.6 | 0.00 | 0.00 | 0.00 | 57 | 1010.2 |
| 20260505234519 | 21 | 227 | 0.0 | 1.6 | 0.00 | 0.00 | 0.00 | 58 | 1010.4 |
| 20260505234016 | 21 | 252 | 0.0 | 0.0 | 0.00 | 0.00 | 0.00 | 56 | 1010.4 |
| 20260505233517 | 21 | 252 | 0.0 | 1.6 | 0.00 | 0.00 | 0.00 | 56 | 1010.3 |
| 20260505233017 | 21 | 252 | 0.0 | 1.6 | 0.00 | 0.00 | 0.00 | 55 | 1010.2 |
| 20260505232516 | 21 | 269 | 0.0 | 3.2 | 0.00 | 0.00 | 0.00 | 54 | 1010.1 |
| 20260505232016 | 21 | 269 | 0.0 | 3.2 | 0.00 | 0.00 | 0.00 | 53 | 1010.3 |
| 20260505231516 | 21 | 261 | 0.0 | 3.2 | 0.00 | 0.00 | 0.00 | 55 | 1010.3 |
| 20260505231019 | 21 | 184 | 0.0 | 0.0 | 0.00 | 0.00 | 0.00 | 54 | 1010.2 |
| 20260505230519 | 21 | 184 | 0.0 | 1.6 | 0.00 | 0.00 | 0.00 | 57 | 1010.2 |
| 20260505230016 | 21 | 184 | 0.0 | 1.6 | 0.00 | 0.00 | 0.00 | 57 | 1010.0 |
| 20260505225515 | 21 | 184 | 0.0 | 0.0 | 0.00 | 0.00 | 0.00 | 54 | 1009.9 |
| 20260505225014 | 21 | 184 | 0.0 | 1.6 | 0.00 | 0.00 | 0.00 | 54 | 1010.0 |
| 20260505224517 | 21 | 184 | 0.0 | 1.6 | 0.00 | 0.00 | 0.00 | 52 | 1010.0 |
| 20260505224013 | 21 | 184 | 0.0 | 1.6 | 0.00 | 0.00 | 0.00 | 52 | 1010.1 |
| 20260505223517 | 21 | 228 | 0.0 | 3.2 | 0.00 | 0.00 | 0.00 | 52 | 1010.2 |
| 20260505223013 | 21 | 228 | 0.0 | 3.2 | 0.00 | 0.00 | 0.00 | 51 | 1010.1 |
| 20260505222512 | 21 | 173 | 0.0 | 1.6 | 0.00 | 0.00 | 0.00 | 51 | 1010.0 |
| 20260505222013 | 22 | 173 | 0.0 | 3.2 | 0.00 | 0.00 | 0.00 | 51 | 1010.1 |
| 20260505221512 | 22 | 172 | 0.0 | 4.8 | 0.00 | 0.00 | 0.00 | 50 | 1010.3 |
| 20260505221012 | 22 | 241 | 0.0 | 4.8 | 0.00 | 0.00 | 0.00 | 48 | 1010.3 |
| 20260505220511 | 22 | 240 | 0.0 | 3.2 | 0.00 | 0.00 | 0.00 | 50 | 1010.2 |
| 20260505220024 | 22 | 240 | 0.0 | 3.2 | 0.00 | 0.00 | 0.00 | 49 | 1010.2 |
| 20260505215515 | 22 | 240 | 0.0 | 4.8 | 0.00 | 0.00 | 0.00 | 53 | 1010.2 |
| 20260505215011 | 22 | 98 | 1.6 | 4.8 | 0.00 | 0.00 | 0.00 | 48 | 1010.2 |
| 20260505214516 | 22 | 146 | 0.0 | 3.2 | 0.00 | 0.00 | 0.00 | 48 | 1010.1 |
| 20260505214111 | 22 | 218 | 0.0 | 6.4 | 0.00 | 0.00 | 0.00 | 48 | 1010.3 |
| 20260505213508 | 22 | 209 | 1.6 | 9.7 | 0.00 | 0.00 | 0.00 | 51 | 1010.4 |
| 20260505213007 | 22 | 147 | 0.0 | 9.7 | 0.00 | 0.00 | 0.00 | 50 | 1010.4 |
| 20260505212507 | 23 | 98 | 1.6 | 4.8 | 0.00 | 0.00 | 0.00 | 49 | 1010.4 |
| 20260505212007 | 23 | 239 | 1.6 | 6.4 | 0.00 | 0.00 | 0.00 | 48 | 1010.5 |
| 20260505211507 | 23 | 240 | 1.6 | 6.4 | 0.00 | 0.00 | 0.00 | 48 | 1010.7 |
| 20260505211009 | 23 | 235 | 1.6 | 6.4 | 0.00 | 0.00 | 0.00 | 45 | 1010.7 |
| 20260505210506 | 23 | 227 | 1.6 | 4.8 | 0.00 | 0.00 | 0.00 | 45 | 1010.7 |
| 20260505210007 | 23 | 236 | 1.6 | 4.8 | 0.00 | 0.00 | 0.00 | 45 | 1010.5 |
| 20260505205513 | 23 | 231 | 0.0 | 6.4 | 0.00 | 0.00 | 0.00 | 51 | 1010.5 |
| 20260505205006 | 24 | 229 | 1.6 | 6.4 | 0.00 | 0.00 | 0.00 | 47 | 1010.6 |
| 20260505204507 | 24 | 246 | 0.0 | 4.8 | 0.00 | 0.00 | 0.00 | 48 | 1010.7 |
| 20260505204103 | 24 | 235 | 1.6 | 4.8 | 0.00 | 0.00 | 0.00 | 45 | 1010.8 |
| 20260505203502 | 24 | 250 | 1.6 | 8.0 | 0.00 | 0.00 | 0.00 | 45 | 1010.8 |
| 20260505203002 | 24 | 229 | 0.0 | 4.8 | 0.00 | 0.00 | 0.00 | 48 | 1010.7 |
| 20260505202502 | 25 | 132 | 0.0 | 6.4 | 0.00 | 0.00 | 0.00 | 47 | 1010.7 |
| 20260505202100 | 25 | 234 | 3.2 | 6.4 | 0.00 | 0.00 | 0.00 | 44 | 1010.9 |
| 20260505201606 | 25 | 146 | 0.0 | 6.4 | 0.00 | 0.00 | 0.00 | 43 | 1011.1 |
| 20260505201058 | 25 | 239 | 3.2 | 6.4 | 0.00 | 0.00 | 0.00 | 41 | 1011.2 |
| 20260505200559 | 25 | 243 | 1.6 | 6.4 | 0.00 | 0.00 | 0.00 | 45 | 1011.1 |
| 20260505200058 | 25 | 234 | 1.6 | 9.7 | 0.00 | 0.00 | 0.00 | 44 | 1011.3 |
| 20260505195558 | 25 | 246 | 4.8 | 9.7 | 0.00 | 0.00 | 0.00 | 45 | 1011.3 |
| 20260505195058 | 25 | 262 | 1.6 | 8.0 | 0.00 | 0.00 | 0.00 | 46 | 1011.1 |
| 20260505194601 | 25 | 226 | 4.8 | 8.0 | 0.00 | 0.00 | 0.00 | 45 | 1011.2 |
| 20260505194100 | 25 | 223 | 3.2 | 8.0 | 0.00 | 0.00 | 0.00 | 47 | 1011.4 |
| 20260505193556 | 25 | 174 | 1.6 | 6.4 | 0.00 | 0.00 | 0.00 | 46 | 1011.5 |
| 20260505193056 | 25 | 224 | 1.6 | 6.4 | 0.00 | 0.00 | 0.00 | 43 | 1011.6 |
| 20260505192558 | 25 | 226 | 1.6 | 8.0 | 0.00 | 0.00 | 0.00 | 45 | 1011.7 |
| 20260505192055 | 25 | 247 | 3.2 | 6.4 | 0.00 | 0.00 | 0.00 | 43 | 1011.7 |
| 20260505191603 | 25 | 236 | 3.2 | 9.7 | 0.00 | 0.00 | 0.00 | 45 | 1011.5 |
| 20260505191054 | 25 | 235 | 1.6 | 9.7 | 0.00 | 0.00 | 0.00 | 46 | 1011.5 |
| 20260505190558 | 25 | 239 | 3.2 | 8.0 | 0.00 | 0.00 | 0.00 | 45 | 1011.6 |
| 20260505190112 | 25 | 204 | 1.6 | 8.0 | 0.00 | 0.00 | 0.00 | 46 | 1011.7 |
| 20260505185554 | 25 | 106 | 3.2 | 8.0 | 0.00 | 0.00 | 0.00 | 46 | 1011.7 |
| 20260505185052 | 25 | 240 | 3.2 | 6.4 | 0.00 | 0.00 | 0.00 | 45 | 1011.7 |
| 20260505184604 | 25 | 91 | 3.2 | 8.0 | 0.00 | 0.00 | 0.00 | 46 | 1011.9 |
| 20260505184050 | 25 | 227 | 1.6 | 8.0 | 0.00 | 0.00 | 0.00 | 44 | 1012.0 |
| 20260505183551 | 25 | 227 | 3.2 | 8.0 | 0.00 | 0.00 | 0.00 | 43 | 1012.1 |
| 20260505183053 | 25 | 229 | 4.8 | 6.4 | 0.00 | 0.00 | 0.00 | 41 | 1012.1 |
| 20260505182546 | 25 | 254 | 3.2 | 9.7 | 0.00 | 0.00 | 0.00 | 42 | 1012.3 |
| 20260505182046 | 24 | 250 | 1.6 | 9.7 | 0.00 | 0.00 | 0.00 | 44 | 1012.6 |
| 20260505181546 | 24 | 165 | 1.6 | 8.0 | 0.00 | 0.00 | 0.00 | 43 | 1012.7 |
| 20260505181050 | 24 | 146 | 3.2 | 8.0 | 0.00 | 0.00 | 0.00 | 42 | 1012.7 |
| 20260505180545 | 24 | 132 | 0.0 | 8.0 | 0.00 | 0.00 | 0.00 | 43 | 1012.6 |
| 20260505180049 | 24 | 257 | 3.2 | 6.4 | 0.00 | 0.00 | 0.00 | 45 | 1012.7 |
| 20260505175545 | 23 | 153 | 1.6 | 9.7 | 0.00 | 0.00 | 0.00 | 45 | 1012.6 |
| 20260505175045 | 24 | 216 | 1.6 | 8.0 | 0.00 | 0.00 | 0.00 | 44 | 1012.7 |
| 20260505174545 | 24 | 251 | 3.2 | 8.0 | 0.00 | 0.00 | 0.00 | 45 | 1012.7 |
| 20260505174043 | 24 | 161 | 3.2 | 6.4 | 0.00 | 0.00 | 0.00 | 44 | 1012.7 |
| 20260505173545 | 24 | 259 | 1.6 | 9.7 | 0.00 | 0.00 | 0.00 | 46 | 1012.9 |
| 20260505173045 | 24 | 244 | 4.8 | 9.7 | 0.00 | 0.00 | 0.00 | 46 | 1013.0 |
| 20260505172542 | 24 | 254 | 0.0 | 6.4 | 0.00 | 0.00 | 0.00 | 46 | 1013.0 |
| 20260505172041 | 23 | 250 | 3.2 | 6.4 | 0.00 | 0.00 | 0.00 | 49 | 1013.2 |
| 20260505171543 | 23 | 234 | 3.2 | 9.7 | 0.00 | 0.00 | 0.00 | 46 | 1013.3 |
| 20260505171041 | 23 | 262 | 1.6 | 9.7 | 0.00 | 0.00 | 0.00 | 46 | 1013.4 |
| 20260505170539 | 23 | 211 | 4.8 | 9.7 | 0.00 | 0.00 | 0.00 | 49 | 1013.5 |
| 20260505170039 | 23 | 253 | 1.6 | 6.4 | 0.00 | 0.00 | 0.00 | 47 | 1013.7 |
| 20260505165538 | 23 | 211 | 3.2 | 6.4 | 0.00 | 0.00 | 0.00 | 47 | 1013.7 |
| 20260505165037 | 23 | 227 | 1.6 | 6.4 | 0.00 | 0.00 | 0.00 | 51 | 1013.9 |
| 20260505164539 | 22 | 228 | 1.6 | 6.4 | 0.00 | 0.00 | 0.00 | 50 | 1013.9 |
| 20260505164036 | 22 | 246 | 0.0 | 4.8 | 0.00 | 0.00 | 0.00 | 55 | 1013.9 |
| 20260505163536 | 23 | 246 | 1.6 | 9.7 | 0.00 | 0.00 | 0.00 | 57 | 1014.0 |
| 20260505163034 | 22 | 77 | 3.2 | 9.7 | 0.00 | 0.00 | 0.00 | 55 | 1013.9 |
| 20260505162534 | 22 | 234 | 0.0 | 3.2 | 0.00 | 0.00 | 0.00 | 58 | 1013.8 |
| 20260505162033 | 22 | 234 | 0.0 | 3.2 | 0.00 | 0.00 | 0.00 | 58 | 1013.7 |
| 20260505161534 | 22 | 247 | 1.6 | 6.4 | 0.00 | 0.00 | 0.00 | 57 | 1013.7 |
| 20260505161033 | 22 | 80 | 0.0 | 9.7 | 0.00 | 0.00 | 0.00 | 58 | 1013.7 |
| 20260505160532 | 22 | 91 | 1.6 | 6.4 | 0.00 | 0.00 | 0.00 | 58 | 1014.0 |
| 20260505153030 | 21 | 139 | 0.0 | 9.7 | 0.00 | 0.00 | 0.00 | 63 | 1014.2 |
| 20260505152527 | 21 | 88 | 3.2 | 9.7 | 0.00 | 0.00 | 0.00 | 62 | 1014.2 |
| 20260505152028 | 20 | 238 | 1.6 | 4.8 | 0.00 | 0.00 | 0.00 | 62 | 1014.2 |
| 20260505151523 | 20 | 244 | 0.0 | 9.7 | 0.00 | 0.00 | 0.00 | 63 | 1014.3 |
| 20260505151023 | 20 | 68 | 0.0 | 3.2 | 0.00 | 0.00 | 0.00 | 63 | 1014.2 |
| 20260505150522 | 20 | 208 | 0.0 | 3.2 | 0.00 | 0.00 | 0.00 | 66 | 1014.1 |
| 20260505140517 | 17 | 169 | 0.0 | 1.6 | 0.00 | 0.00 | 0.00 | 70 | 1014.2 |
| 20260505124605 | 13 | 86 | 0.0 | 0.0 | 0.00 | 0.00 | 0.00 | 88 | 1014.2 |
| 20260505124055 | 12 | 86 | 0.0 | 0.0 | 0.00 | 0.00 | 0.00 | 88 | 1014.2 |
| 20260505123556 | 12 | 86 | 0.0 | 0.0 | 0.00 | 0.00 | 0.00 | 88 | 1014.1 |
| 20260505123110 | 12 | 86 | 0.0 | 0.0 | 0.00 | 0.00 | 0.00 | 88 | 1014.0 |